STARLINK-2231, 48577

Orbit data source: Space-Track

STARLINK-2231, 48577 is a payload satellite owned by SpaceX/Seattle (US) in LEO that was launched on Sat, 15 May 2021 UTC via an FALCON 9 launch vehicle from the Air Force Eastern Test Range (AFETR). Payload-class satellites include a variety of spacecraft equipped with specific instruments for various scientific and technological missions. These include communications satellites like Starlink; space stations such as the ISS; scientific satellites like the Hubble; Earth observation satellites from companies like Planet Labs, Umbra, and HawkEye 360; GPS; miniature CubeSats for education and research; and military/defense satellites.

Loading next visibility...
Identifier
48577, 2021-041AA
Orbit
LEO
Country
Flag of USUS
Related business
Manufacturer
SpaceX/Seattle
Mission
Operational Commercial Communications
Bus & Motor
STARLINK, Unknown motor
Mass
260 kg wet, ~248 kg dry
Launch date (UTC)
2021-05-15 (5 years ago)
Launch vehicle
FALCON 9
Launch site
Air Force Eastern Test Range (AFETR)
Object type
Payload
Rocket body
Debris
Shape & HBR
Box + 1 Pan, 10.1 m
Radar Cross Section
13.562 m², Large (>1 m²)

Expand to show TLE details & history
Last TLE update: 3 days ago

TLE from 3 days ago
0 STARLINK-2231
1 48577U 21041AA  26170.92523425  .00000860  00000-0  39475-4 0  9993
2 48577  53.1605  11.2931 0001202  96.6268 263.4871 15.31700749280932
Epoch: 2026-06-19T22:12Z
TLE epoch observation values (Epoch: 2026-06-19T22:12:20.239Z)
Latitude
0.00005°
Longitude
130.06159°
Altitude
471.732 km
Speed
7.631 km/s
True Right ascension
00h 45m 10s
True Declination
0° 00' 00"
Sunlit
Object was in daylight at epoch
Visualization orbit readout
Latitude
Unknown
Longitude
Unknown
Altitude
Unknown
Speed
Unknown
Apparent Right ascension
Unknown
Apparent Declination
Unknown
Sunlit
N/A
Visualization observer readout
Local Sidereal Time
23:20:06
Azimuth
Unknown
Elevation
Unknown
Doppler factor
Unknown
Orbital elements
Apogee altitude
471.818 km
Perigee altitude
470.171 km
Semi-major axis
6,849.131 km
Eccentricity
0.00012
Inclination
53.1605°
RAAN
11.2931°
Arg. of periapsis
96.6268°
True anomaly
263.47342°
Mean anomaly
263.4871°
Eccentric anomaly
263.48026°
Mean motion
3.82904 °/min
Orbital period
94.02 mins
BSTAR
0.000039475
Loading maneuver chart data...
Computing Atmospheric mass density...
Loading historical data...
Loading historical data...
Loading historical data...
Loading historical data...
Loading historical data...
Loading historical data...
Loading historical data...

Documentation

Showing up to 5 results
|